Retour au catalogue

SL-12 R/B(2)

ActifMEO
NORAD 15264·ROCKET BODY·🇷🇺 Russia

Lancé Sep 4, 1984 depuis Baikonur Cosmodrome

Loading…

Prochains Passages (prochaines 24 heures)

TLE

FraisSource: Space-Track

Époque: Sep 12, 2026, 09:21 UTC

1 15264U 84095F   26255.38980193 -.00000004  00000-0  00000-0 0  9990
2 15264  64.8803  69.1155 0013711  57.8931 120.4594  2.13046378321478

Suivez SL-12 R/B(2) en temps réel avec AllMySat

Download on the App Store